Flag for Germany Weather past 2 weeks in Bremerhaven, Bremen, Germany

Now
37 °F

Sprinkles. Fog.


Feels Like: 25 °F
Forecast: 41 / 48 °F
Wind: 30 mph from Northwest

Location: Nordholz

Current Time: Dec 20, 2014 at 11:51:31 AM

Latest Report: Dec 20, 2014 at 11:20 AM


Visibility: 3 mi

Pressure: 29.77 "Hg

Humidity: 93%

Dew point: 36 °F

Location of BremerhavenLocation

Historic Weather in Bremerhaven — Graph

°F

Bremerhaven temperature yesterday

Maximum temperature yesterday: 52 °F (at 1:20 AM)
Minimum temperature yesterday: 41 °F (at 8:20 PM)
Average temperature yesterday: 47 °F

Past Weeks' High & Low Weather Summary

 TemperatureHumidityPressure
High52 °F (Dec 18, 6:20 PM)100% (Dec 6, 6:20 AM)30.30 "Hg (Dec 6, 6:20 AM)
Low32 °F (Dec 7, 2:20 AM)75% (Dec 13, 1:20 AM)29.12 "Hg (Dec 12, 12:20 PM)
Average40 °F90%29.79 "Hg
* Reported Dec 5 10:20 AM — Dec 20 10:20 AM, Bremerhaven, Weather by CustomWeather, © 2014

Note: Actual official high and low records may vary slightly from our data, if they occured in-between our weather recording intervals... More about our weather records

Advertising

Bremerhaven weather history for previous 24 hours

 ConditionsComfort  
Time TempWeatherWind HumidityBarometerVisibility
10:20 AM
Dec 20
43 °FRain showers. Fog.25 mph81%29.74 "Hg2 mi
10:00 AM43 °FPartly sunny.25 mph81%29.77 "Hg6 mi
8:20 AM43 °FPassing clouds.33 mph81%29.74 "HgN/A
7:20 AM43 °FSprinkles. Partly cloudy.32 mph81%29.77 "HgN/A
6:20 AM43 °FPartly cloudy.29 mph81%29.80 "HgN/A
5:20 AM43 °FSprinkles. Passing clouds.32 mph87%29.80 "HgN/A
4:46 AM43 °FPartly cloudy.29 mph81%29.80 "HgN/A
4:20 AM43 °FPassing clouds.25 mph81%29.80 "HgN/A
3:20 AM43 °FPassing clouds.24 mph81%29.80 "HgN/A
2:20 AM43 °FPassing clouds.28 mph81%29.80 "HgN/A
1:20 AM43 °FPassing clouds.28 mph81%29.80 "HgN/A
12:20 AM43 °FPassing clouds.23 mph81%29.80 "HgN/A
11:20 PM
Dec 19
43 °FPassing clouds.22 mph81%29.77 "HgN/A
10:20 PM41 °FPassing clouds.21 mph81%29.77 "HgN/A
9:20 PM41 °FPassing clouds.18 mph87%29.77 "HgN/A
8:20 PM41 °FPassing clouds.28 mph81%29.77 "HgN/A
7:20 PM43 °FPassing clouds.21 mph81%29.74 "HgN/A
6:20 PM43 °FPassing clouds.21 mph81%29.74 "HgN/A
5:20 PM43 °FScattered showers. Passing clouds.21 mph81%29.71 "HgN/A
4:20 PM45 °FScattered showers. Passing clouds.16 mph76%29.68 "HgN/A
3:20 PM45 °FScattered showers. Scattered clouds.23 mph76%29.68 "HgN/A
2:20 PM45 °FPartly sunny.17 mph81%29.65 "HgN/A
1:20 PM46 °FBroken clouds.17 mph76%29.65 "HgN/A
12:20 PM46 °FPartly sunny.18 mph87%29.65 "HgN/A
11:20 AM46 °FPartly sunny.17 mph93%29.62 "HgN/A
Weather by CustomWeather, © 2014

See weather overviewHow to use our weather pages